Regional Weather Roundup
Issued by NWS Albany, NY

Home | Current Version | Previous Version | Text Only | Print | Product List | Glossary On
Versions: 1 2 3 4 5 6 7 8 9 10 11 12 13 14 15 16 17 18 19 20 21 22 23 24 25 26 27 28 29 30 31 32 33 34 35 36 37 38 39 40 41 42 43 44 45 46 47 48 49 50
000
ASUS41 KALY 271610
RWRALY

NEW YORK STATE HOURLY WEATHER ROUNDUP
NATIONAL WEATHER SERVICE ALBANY NY
1100 AM EST FRI FEB 27 2015

NOTE: "FAIR" INDICATES FEW OR NO CLOUDS BELOW 12,000 FEET WITH NO
SIGNIFICANT WEATHER AND/OR NO OBSTRUCTIONS TO VISIBILITY.

NYZ032-033-038>043-046>054-057>066-NYZ062>081-271700-
EAST


CITY           SKY/WX    TMP DP  RH WIND       PRES   REMARKS
ALBANY         SUNNY     16  -4  41 NW9       30.42S WCI   4
GLENS FALLS    SUNNY     13  -3  49 SE3       30.40S
POUGHKEEPSIE   SUNNY     20  -2  38 N8        30.41S WCI  10
NEWBURGH       SUNNY     18   1  49 VRB5      30.39R WCI  11
MONTGOMERY     SUNNY     18   1  47 CALM      30.38S
WHITE PLAINS   SUNNY     20   0  41 NW9       30.36R WCI   9
ISLIP          MOSUNNY   23   6  48 N10       30.37R WCI  12
NEW YORK CITY  PTSUNNY   22   6  50 N8        30.40S WCI  12
CENTRAL PARK   SUNNY     23   5  46 VRB5      30.42R WCI  17
$$

NYZ005>009-017-018-044>046-055-056-271700-
CENTRAL


CITY           SKY/WX    TMP DP  RH WIND       PRES   REMARKS
FULTON         MOSUNNY   13   0  56 W14       30.44R WCI  -2
SYRACUSE       PTSUNNY   16   6  64 W13       30.43S WCI   2
ROME           SUNNY     10   3  73 CALM      30.44S
ELMIRA         MOSUNNY   13   0  56 W9        30.41R WCI   1
BINGHAMTON     MOSUNNY   12  -2  53 W10       30.31R WCI  -1
MONTICELLO     SUNNY     14   1  57 NW8       30.32R WCI   3
$$

NYZ026>034-041>043-271700-
NORTH


CITY           SKY/WX    TMP DP  RH WIND       PRES   REMARKS
WATERTOWN      SUNNY     13   3  64 W9        30.43S WCI   1
FORT DRUM      NOT AVBL
MASSENA        SUNNY      8  -9  45 W8        30.44R WCI  -4
SARANAC LAKE   SUNNY      7 -10  46 W9        30.24R WCI  -7
PLATTSBURGH    MIX PCPN  10  -1  61 SE9       30.39S WCI  -3
$$

NYZ001>004-010>016-019>021-271700-
WEST


CITY           SKY/WX    TMP DP  RH WIND       PRES   REMARKS
NIAGARA FALLS  MOSUNNY    8   0  69 W9        30.48R WCI  -5
BUFFALO        MOSUNNY    4  -3  73 SW13      30.48R WCI -13
DUNKIRK        MOSUNNY    6  -2  69 W13       30.52R WCI -10
JAMESTOWN      MOSUNNY    3  -4  72 W10G16    30.37R WCI -12
WELLSVILLE     MIX PCPN   9  -3  58 NW10      30.31R WCI  -5
ROCHESTER      PTSUNNY   12   1  61 W10       30.46R WCI  -1
PENN YAN       SUNNY     13  -1  54 W8        30.41R WCI   2
$$

             KEY
       WCI = WIND CHILL INDEX
       VSB = VISIBILITY
       HX  = HEAT INDEX
$$



USA.gov is the U.S. government's official web portal to all federal, state and local government web resources and services.